Location: Baix
(44.7118°N, 4.7648°E)
Time: 02:29:13
(UTC+00:00)

Cosmos 2219 - Pass Details

Date: 07 August 2020
Orbit: 834 x 860 km, 71.1° (Epoch: 19 September)

Event Time Altitude Azimuth Distance (km) Brightness Sun altitude
Exits shadow 02:27:29 22° 266° (W) 1,745 4.4 -18.9°
Maximum altitude 02:29:55 31° 307° (NW) 1,446 4.4 -18.6°
Drops below altitude 10° 02:34:50 10° 9° (N) 2,454 6.4 -18.0°
Sets 02:37:35 0° 20° (NNE) 3,392 7.6 -17.7°
